Regional Weather Roundup
Issued by NWS Cleveland, OH

Home | Current Version | Previous Version | Text Only | Print | Product List | Glossary On
Versions: 1 2 3 4 5 6 7 8 9 10 11 12 13 14 15 16 17 18 19 20 21 22 23 24 25 26 27 28 29 30 31 32 33 34 35 36 37 38 39 40 41 42 43 44 45 46 47 48 49 50
000
ASUS41 KCLE 200410
RWRCLE
OHIO REGIONAL WEATHER ROUNDUP
NATIONAL WEATHER SERVICE CLEVELAND, OH
1200 AM EDT WED AUG 20 2014

NOTE: "FAIR" INDICATES FEW OR NO CLOUDS BELOW 12,000 FEET WITH NO
SIGNIFICANT WEATHER AND/OR OBSTRUCTIONS TO VISIBILITY.

OHZ001>008-015>018-024>027-034-035-043-044-200500-
   NORTHWEST OHIO

CITY           SKY/WX    TMP DP  RH WIND       PRES   REMARKS
DEFIANCE       LGT RAIN  70  66  87 S7        29.81F
FINDLAY        LGT RAIN  69  67  93 W3        29.83S
TOLEDO EXPRESS CLOUDY    67  66  97 S5        29.82R
TOLEDO EXEC    CLOUDY    68  64  87 S7        29.82S
LIMA           CLOUDY    70  66  87 CALM      29.84F
$$

OHZ009>014-019>023-028>033-038-089-200500-
   NORTHEAST OHIO

CITY           SKY/WX    TMP DP  RH WIND       PRES   REMARKS
CLE-HOPKINS    CLOUDY    67  65  93 S14       29.87R
CLE-LAKEFRONT  CLOUDY    69  65  86 S14       29.83F
CUY CO. ARPT   NOT AVBL
LORAIN-ELYRIA  MOCLDY    70  66  87 S8        29.86R
ASHTABULA      LGT RAIN  66  64  93 SE7       29.90S
AKRON-CANTON   TSTM      67  63  87 S7        29.91F FOG
WOOSTER        CLOUDY    66  63  90 SE7       29.88S
MANSFIELD      MOCLDY    69  67  93 CALM      29.88R
YOUNGSTOWN     TSTM      64  63  94 CALM      29.91F FOG
$$

OHZ042-051>053-060>062-070>072-077>081-200500-
  SOUTHWEST OHIO

CITY           SKY/WX    TMP DP  RH WIND       PRES   REMARKS
CINC-COVINGTON MOCLDY    76  69  79 S6        29.85F
CINC-LUNKEN    MOCLDY    76  69  79 CALM      29.84F
HAMILTON       MOCLDY    73  70  90 CALM      29.85S
DAYTON         CLOUDY    77  69  76 SW5       29.86R
WRIGHT-PAT AFB CLOUDY    77  69  75 SW5       29.84S
DAYTON GENERAL CLOUDY    76  68  76 SW5       29.85S
WILMINGTON     CLOUDY    73  67  81 S5        29.86S
$$

OHZ036-037-039>041-045>050-054>059-063>069-073>076-082>088-200500-
  CENTRAL AND SOUTHEAST OHIO

CITY           SKY/WX    TMP DP  RH WIND       PRES   REMARKS
COLUMBUS       CLOUDY    80  68  66 S6        29.84S
OSU AIRPORT    CLOUDY    75  67  76 NW8       29.85S
BOLTON FIELD   CLOUDY    73  70  92 SW3       29.85S
RICKENBACK AFB MOCLDY    75  65  70 SW5       29.84S
NEWARK         MOCLDY    74  70  87 CALM      29.85R FOG
MARION         CLOUDY    70  63  78 SE5       29.85S
LANCASTER      PTCLDY    75  69  81 S5        29.85S
ZANESVILLE     PTCLDY    75  69  81 S6        29.87R
NEW PHILLY     TSTM      66  65  96 MISG      29.91R FOG
$$


USA.gov is the U.S. government's official web portal to all federal, state and local government web resources and services.